Find VUSat-OSCAR-52

NORAD ID: 28650 Int'l Des: 2005-017 Owner: AMVU Country: IN operational
LEOCIRCULARRETROGRADE

实时位置

正在加载3D地球...

关于 VUSat-OSCAR-52

正在加载描述...

即将过境

Passes for default location (London). Set your location on the main map for personalized predictions.

高度历史

Loading altitude history...

两行轨道根数

1 28650U 05017B 26105.61015303 .00002688 00000-0 17303-3 0 9998
2 28650 97.9955 126.0408 0018117 246.6633 113.2688 15.09182254137328
Epoch: Apr 15, 2026 • Age: 8 hours

当前状态

高度 553.7 km
速度 7.59 km/s
星下点 -55.57°S, 41.22°W
发射日期 May 5, 2005
运行时间 20.9 years
类型 other

技术详情

分类 Payload
质量 43.00 kg
干质量 43.00 kg
总质量 43.00 kg
长度 0.60 m
直径 0.50 m
跨度 0.60 m
形状 Box
制造商 AMVU
平台类型 AMSAT
阶段状态 In Orbit
所有者/国家 AMVU/IN

Most Searched